When you browse on this site, cookies collect data to enhance your experience and personalize the content and advertising you see.
Visit our Privacy Policy to learn more. By continuing to use the site, you agree to this use of cookies and data.
  • In Latvia
  • List of Countries
  • For 7 days
  • Water Temperature
  • Weather Map
  • Weather Widgets
  • user-avatar
    Login

    Hourly Weather Brisbane

    Today, 22 August, Thursday

    Time Temperature Precipitation Wind Pressure Humidity
    00:00 +14°C° 0 mm 4 mps 760 mmHg 57%
    01:00 +13°C° 0 mm 4 mps 760 mmHg 60%
    02:00 +13°C° 0 mm 4 mps 760 mmHg 62%
    03:00 +13°C° 0 mm 4 mps 760 mmHg 63%
    04:00 +13°C° 0 mm 4 mps 760 mmHg 64%
    05:00 +13°C° 0 mm 4 mps 760 mmHg 63%
    06:00 +13°C° 0 mm 4 mps 760 mmHg 61%
    07:00 +13°C° 0 mm 4 mps 760 mmHg 60%
    08:00 +15°C° 0 mm 5 mps 760 mmHg 52%
    09:00 +17°C° 0 mm 5 mps 759 mmHg 45%
    10:00 +21°C° 0 mm 5 mps 759 mmHg 36%
    11:00 +22°C° 0 mm 5 mps 758 mmHg 33%
    12:00 +23°C° 0 mm 6 mps 758 mmHg 29%
    13:00 +26°C° 0 mm 6 mps 757 mmHg 26%
    14:00 +24°C° 0 mm 6 mps 757 mmHg 28%
    15:00 +24°C° 0 mm 6 mps 757 mmHg 30%
    16:00 +24°C° 0 mm 6 mps 756 mmHg 30%
    17:00 +22°C° 0 mm 6 mps 757 mmHg 34%
    18:00 +21°C° 0 mm 5 mps 758 mmHg 39%
    19:00 +19°C° 0 mm 5 mps 759 mmHg 44%
    20:00 +17°C° 0 mm 5 mps 760 mmHg 50%
    21:00 +17°C° 0 mm 4 mps 761 mmHg 56%
    22:00 +15°C° 0 mm 4 mps 762 mmHg 61%
    23:00 +15°C° 0 mm 4 mps 762 mmHg 64%

    Tomorrow, 23 August, Friday

    Time Temperature Precipitation Wind Pressure Humidity
    00:00 +15°C° 0 mm 4 mps 763 mmHg 67%
    01:00 +14°C° 0 mm 4 mps 763 mmHg 70%
    02:00 +13°C° 0 mm 4 mps 763 mmHg 72%
    03:00 +13°C° 0 mm 3 mps 763 mmHg 75%
    04:00 +12°C° 0 mm 3 mps 763 mmHg 77%
    05:00 +11°C° 0 mm 3 mps 764 mmHg 73%
    06:00 +11°C° 0 mm 3 mps 765 mmHg 69%
    07:00 +11°C° 0 mm 3 mps 766 mmHg 66%
    08:00 +13°C° 0 mm 3 mps 766 mmHg 58%
    09:00 +17°C° 0 mm 3 mps 766 mmHg 50%
    10:00 +19°C° 0 mm 3 mps 766 mmHg 42%
    11:00 +20°C° 0 mm 3 mps 766 mmHg 40%
    12:00 +21°C° 0 mm 3 mps 765 mmHg 38%
    13:00 +22°C° 0 mm 4 mps 765 mmHg 36%
    14:00 +21°C° 0 mm 4 mps 765 mmHg 38%
    15:00 +21°C° 0 mm 4 mps 765 mmHg 40%
    16:00 +21°C° 0 mm 4 mps 765 mmHg 41%
    17:00 +19°C° 0 mm 4 mps 765 mmHg 49%
    18:00 +17°C° 0 mm 4 mps 766 mmHg 57%
    19:00 +15°C° 0 mm 4 mps 767 mmHg 65%
    20:00 +14°C° 0 mm 3 mps 767 mmHg 68%
    21:00 +14°C° 0 mm 3 mps 767 mmHg 71%
    22:00 +14°C° 0 mm 2 mps 767 mmHg 73%
    23:00 +14°C° 0 mm 2 mps 767 mmHg 76%

    Day after tomorrow, 24 August, Saturday

    Time Temperature Precipitation Wind Pressure Humidity
    00:00 +13°C° 0 mm 2 mps 767 mmHg 78%
    01:00 +12°C° 0 mm 2 mps 766 mmHg 80%
    02:00 +12°C° 0 mm 2 mps 766 mmHg 81%
    03:00 +12°C° 0 mm 2 mps 766 mmHg 81%
    04:00 +11°C° 0 mm 1 mps 766 mmHg 82%
    05:00 +11°C° 0 mm 1 mps 767 mmHg 81%
    06:00 +10°C° 0 mm 2 mps 767 mmHg 80%
    07:00 +10°C° 0 mm 2 mps 767 mmHg 79%
    08:00 +14°C° 0 mm 1 mps 767 mmHg 69%
    09:00 +18°C° 0 mm 1 mps 767 mmHg 58%
    10:00 +22°C° 0 mm 1 mps 767 mmHg 48%
    11:00 +22°C° 0 mm 1 mps 766 mmHg 44%
    12:00 +23°C° 0 mm 1 mps 765 mmHg 41%
    13:00 +24°C° 0 mm 2 mps 765 mmHg 37%
    14:00 +24°C° 0 mm 2 mps 764 mmHg 40%
    15:00 +23°C° 0 mm 2 mps 764 mmHg 42%
    16:00 +21°C° 0 mm 3 mps 763 mmHg 45%
    17:00 +19°C° 0 mm 3 mps 764 mmHg 53%
    18:00 +18°C° 0 mm 3 mps 764 mmHg 62%
    19:00 +16°C° 0 mm 3 mps 764 mmHg 70%
    20:00 +14°C° 0 mm 3 mps 765 mmHg 73%
    21:00 +15°C° 0 mm 2 mps 765 mmHg 76%
    22:00 +14°C° 0 mm 2 mps 765 mmHg 79%
    23:00 +14°C° 0 mm 2 mps 765 mmHg 80%

    25 August, Sunday

    Time Temperature Precipitation Wind Pressure Humidity
    00:00 +13°C° 0 mm 1 mps 764 mmHg 81%
    01:00 +13°C° 0 mm 1 mps 764 mmHg 82%
    02:00 +13°C° 0 mm 1 mps 764 mmHg 83%
    03:00 +12°C° 0 mm 1 mps 764 mmHg 84%
    04:00 +12°C° 0 mm 1 mps 764 mmHg 85%
    05:00 +12°C° 0 mm 1 mps 764 mmHg 84%
    06:00 +12°C° 0 mm 1 mps 764 mmHg 83%
    07:00 +12°C° 0 mm 1 mps 764 mmHg 82%
    08:00 +15°C° 0 mm 1 mps 764 mmHg 71%
    09:00 +18°C° 0 mm 2 mps 764 mmHg 60%
    10:00 +21°C° 0 mm 2 mps 764 mmHg 50%
    11:00 +23°C° 0 mm 2 mps 763 mmHg 44%
    12:00 +25°C° 0 mm 2 mps 762 mmHg 39%
    13:00 +27°C° 0 mm 2 mps 761 mmHg 33%
    14:00 +26°C° 0 mm 2 mps 761 mmHg 36%
    15:00 +25°C° 0 mm 3 mps 760 mmHg 40%
    16:00 +24°C° 0 mm 3 mps 760 mmHg 43%
    17:00 +22°C° 0 mm 3 mps 760 mmHg 49%
    18:00 +21°C° 0 mm 3 mps 761 mmHg 55%
    19:00 +19°C° 0 mm 3 mps 761 mmHg 61%
    20:00 +19°C° 0 mm 3 mps 761 mmHg 63%
    21:00 +18°C° 0 mm 3 mps 762 mmHg 65%
    22:00 +17°C° 0 mm 3 mps 762 mmHg 66%
    23:00 +17°C° 0 mm 2 mps 762 mmHg 67%

    26 August, Monday

    Time Temperature Precipitation Wind Pressure Humidity
    00:00 +17°C° 0 mm 2 mps 762 mmHg 67%
    01:00 +17°C° 0 mm 2 mps 762 mmHg 67%
    02:00 +16°C° 0 mm 2 mps 761 mmHg 70%
    03:00 +15°C° 0 mm 1 mps 761 mmHg 73%
    04:00 +15°C° 0 mm 1 mps 761 mmHg 75%
    05:00 +15°C° 0 mm 1 mps 761 mmHg 74%
    06:00 +15°C° 0 mm 1 mps 762 mmHg 73%
    07:00 +15°C° 0 mm 1 mps 762 mmHg 72%
    08:00 +19°C° 0 mm 1 mps 762 mmHg 61%
    09:00 +22°C° 0 mm 1 mps 762 mmHg 50%
    10:00 +25°C° 0 mm 1 mps 762 mmHg 39%
    11:00 +26°C° 0 mm 1 mps 762 mmHg 36%
    12:00 +27°C° 0 mm 2 mps 761 mmHg 32%
    13:00 +28°C° 0 mm 2 mps 761 mmHg 29%
    14:00 +27°C° 0 mm 3 mps 760 mmHg 35%
    15:00 +25°C° 0 mm 3 mps 760 mmHg 42%
    16:00 +23°C° 0 mm 4 mps 760 mmHg 48%
    17:00 +21°C° 0 mm 4 mps 761 mmHg 55%
    18:00 +20°C° 0 mm 3 mps 762 mmHg 62%
    19:00 +19°C° 0 mm 3 mps 762 mmHg 69%
    20:00 +18°C° 0 mm 3 mps 763 mmHg 72%
    21:00 +17°C° 0 mm 2 mps 763 mmHg 74%
    22:00 +17°C° 0 mm 2 mps 763 mmHg 77%
    23:00 +16°C° 0 mm 2 mps 763 mmHg 78%

    27 August, Tuesday

    Time Temperature Precipitation Wind Pressure Humidity
    00:00 +16°C° 0 mm 2 mps 763 mmHg 80%
    01:00 +15°C° 0 mm 2 mps 763 mmHg 82%
    02:00 +15°C° 0 mm 2 mps 763 mmHg 83%
    03:00 +15°C° 0 mm 2 mps 763 mmHg 85%
    04:00 +14°C° 0 mm 2 mps 763 mmHg 87%
    05:00 +14°C° 0 mm 2 mps 763 mmHg 85%
    06:00 +15°C° 0 mm 2 mps 764 mmHg 84%
    07:00 +15°C° 0 mm 2 mps 764 mmHg 83%
    08:00 +17°C° 0 mm 2 mps 764 mmHg 71%
    09:00 +20°C° 0 mm 2 mps 764 mmHg 59%
    10:00 +23°C° 0 mm 2 mps 764 mmHg 48%
    11:00 +25°C° 0 mm 2 mps 763 mmHg 43%
    12:00 +26°C° 0 mm 2 mps 763 mmHg 38%
    13:00 +27°C° 0 mm 2 mps 762 mmHg 33%
    14:00 +26°C° 0 mm 2 mps 762 mmHg 36%
    15:00 +25°C° 0 mm 3 mps 762 mmHg 40%
    16:00 +24°C° 0 mm 3 mps 762 mmHg 43%
    17:00 +22°C° 0.1 mm 3 mps 762 mmHg 51%
    18:00 +20°C° 0.1 mm 2 mps 763 mmHg 58%
    19:00 +19°C° 0.1 mm 2 mps 764 mmHg 65%
    20:00 +19°C° 0.2 mm 1 mps 764 mmHg 69%
    21:00 +18°C° 0.2 mm 1 mps 764 mmHg 74%
    22:00 +16°C° 0.2 mm 1 mps 764 mmHg 78%
    23:00 +16°C° 0.2 mm 1 mps 764 mmHg 79%
    Show more